VA3PPY Weather Reports


Display with metric or nautical units.
time (UTC)temp
F
wind
direction
speed
MPH
gust
MPH
rain 1hr
in
rain 24hr
in
rain mn
in
humidity
%
barometer
mb
20260506033025 49 128 0.0 4.0 0.00 0.01 0.01 87 1006.9
20260506031529 49 93 0.0 2.0 0.00 0.01 0.01 87 1006.9
20260506030018 49 93 1.0 3.0 0.00 0.01 0.01 87 1007.1
20260506024525 50 93 1.0 3.0 0.00 0.01 0.01 86 1007.0
20260506023017 50 93 0.0 2.0 0.00 0.01 0.01 87 1006.5
20260506021518 50 93 0.0 1.0 0.00 0.01 0.01 86 1006.8
20260506020017 50 93 0.0 0.0 0.00 0.01 0.01 86 1006.7
20260506014516 50 93 0.0 0.0 0.00 0.01 0.01 86 1006.7
20260506013020 49 93 0.0 3.0 0.00 0.01 0.01 86 1006.7
20260506011519 50 49 0.0 0.0 0.00 0.01 0.01 86 1006.5
20260506010043 49 49 0.0 0.0 0.00 0.01 0.01 85 1006.4
20260506004517 50 49 0.0 0.0 0.00 0.01 0.01 84 1006.3
20260506003017 50 49 0.0 0.0 0.01 0.01 0.01 84 1006.2
20260506001517 50 49 0.0 0.0 0.01 0.01 0.01 83 1006.2
20260506000018 51 49 0.0 0.0 0.01 0.01 0.01 82 1005.9
20260505234517 51 49 0.0 1.0 0.00 0.00 0.00 82 1005.8
20260505233018 51 49 0.0 0.0 0.00 0.00 0.00 82 1005.9
20260505231518 51 49 0.0 1.0 0.00 0.00 0.00 81 1006.0
20260505230025 51 49 0.0 2.0 0.00 0.00 0.00 81 1005.9
20260505224517 51 49 0.0 2.0 0.00 0.00 0.00 81 1006.1
20260505223018 50 49 2.0 3.0 0.00 0.00 0.00 82 1006.0
20260505221519 49 49 1.0 3.0 0.00 0.00 0.00 81 1006.2
20260505220022 49 49 0.0 2.0 0.00 0.00 0.00 80 1006.2
20260505214518 49 49 2.0 4.0 0.00 0.00 0.00 79 1006.2
20260505213024 49 47 2.0 5.0 0.00 0.00 0.00 79 1006.3
20260505211521 49 47 1.0 4.0 0.00 0.00 0.00 78 1006.1
20260505210018 48 47 3.0 5.0 0.00 0.00 0.00 77 1006.2
20260505204520 48 347 2.0 4.0 0.00 0.00 0.00 76 1006.3
20260505203028 48 347 1.0 3.0 0.00 0.00 0.00 75 1006.5
20260505201554 48 347 0.0 3.0 0.00 0.00 0.00 73 1006.6
20260505200049 48 347 1.0 3.0 0.00 0.00 0.00 73 1006.8
20260505194549 48 347 1.0 2.0 0.00 0.00 0.00 73 1006.5
20260505193050 47 347 0.0 2.0 0.00 0.00 0.00 72 1006.6
20260505191602 47 347 1.0 3.0 0.00 0.00 0.00 73 1006.5
20260505190057 47 347 0.0 2.0 0.00 0.00 0.00 74 1006.4
20260505184549 46 347 0.0 2.0 0.00 0.00 0.00 77 1006.3
20260505183111 46 347 1.0 3.0 0.00 0.00 0.00 80 1006.1
20260505181551 45 347 0.0 2.0 0.00 0.00 0.00 81 1006.3
20260505180049 45 347 0.0 3.0 0.00 0.00 0.00 82 1006.0
20260505174550 44 347 0.0 2.0 0.00 0.00 0.00 83 1006.0
20260505173053 44 347 0.0 1.0 0.00 0.00 0.00 85 1005.9
20260505171558 43 347 0.0 4.0 0.00 0.00 0.00 83 1005.8
20260505170049 44 347 0.0 3.0 0.00 0.00 0.00 80 1005.6
20260505164551 45 347 2.0 5.0 0.00 0.00 0.00 79 1005.6
20260505163050 45 335 2.0 5.0 0.00 0.00 0.00 77 1005.8
20260505161610 44 347 1.0 5.0 0.00 0.00 0.00 76 1005.8
20260505153051 45 321 1.0 4.0 0.00 0.00 0.00 76 1005.2
20260505151550 45 303 1.0 6.0 0.00 0.00 0.00 76 1005.4
20260505124552 44 317 1.0 5.0 0.00 0.00 0.00 82 1002.7
20260505123051 44 330 3.0 6.0 0.00 0.00 0.00 82 1002.7
20260505121551 43 332 1.0 5.0 0.00 0.00 0.00 82 1002.7
20260505120108 44 335 1.0 7.0 0.00 0.00 0.00 83 1002.2
20260505114551 43 307 2.0 8.0 0.00 0.00 0.00 84 1001.7
20260505113051 43 271 2.0 8.0 0.00 0.00 0.00 85 1001.8
20260505111551 43 302 3.0 8.0 0.00 0.00 0.00 86 1001.6
20260505101553 42 269 0.0 6.0 0.00 0.00 0.00 88 1000.4
20260505100052 42 307 1.0 8.0 0.00 0.00 0.00 88 1000.0
20260505094551 43 306 2.0 8.0 0.00 0.00 0.00 87 999.8
20260505093054 45 359 1.0 4.0 0.00 0.00 0.00 85 999.4
20260505091551 50 237 1.0 5.0 0.00 0.00 0.00 79 998.6
20260505090052 56 255 2.0 5.0 0.00 0.00 0.00 80 998.1
20260505084552 59 255 2.0 5.0 0.00 0.00 0.00 77 997.9
20260505083052 59 183 1.0 10.0 0.00 0.00 0.00 77 997.4
20260505081552 60 160 2.0 13.0 0.00 0.00 0.00 75 997.1
20260505080053 61 195 4.0 9.0 0.00 0.00 0.00 72 996.9
20260505074558 61 155 3.0 8.0 0.00 0.00 0.00 70 996.6
20260505073104 62 202 3.0 9.0 0.00 0.00 0.00 69 997.0
20260505071558 62 323 1.0 9.0 0.00 0.00 0.00 69 997.3
20260505070054 63 244 2.0 8.0 0.00 0.00 0.00 66 997.1
20260505064552 64 214 7.0 16.0 0.00 0.00 0.00 65 996.3
20260505063052 64 180 7.0 17.0 0.00 0.00 0.00 69 996.7
20260505061556 63 249 6.0 18.0 0.00 0.00 0.00 71 997.3
20260505060052 63 207 5.0 15.0 0.00 0.00 0.00 71 997.4
20260505054618 62 156 3.0 13.0 0.00 0.00 0.00 72 997.7
20260505053103 63 160 6.0 17.0 0.00 0.00 0.00 72 997.9
20260505051552 63 184 7.0 18.0 0.00 0.00 0.00 72 998.0
20260505041559 62 202 4.0 18.0 0.00 0.00 0.00 74 997.6
20260505040056 62 127 7.0 16.0 0.00 0.00 0.00 74 997.6
20260505034553 62 147 4.0 17.0 0.00 0.00 0.00 75 997.8